When you browse on this site, cookies collect data to enhance your experience and personalize the content and advertising you see.
Visit our Privacy Policy to learn more. By continuing to use the site, you agree to this use of cookies and data.

Stündliche Wetter Aalen

Heute, 8 August, Samstag

Zeit Temperatur Niederschläge Wind Luftdruck Luftfeuchtigkeit
00:00 +18°C° 0 mm 0 m/S 726 mmHg 78%
01:00 +20°C° 0 mm 1 m/S 726 mmHg 77%
02:00 +20°C° 0 mm 1 m/S 726 mmHg 79%
03:00 +18°C° 0 mm 0 m/S 726 mmHg 81%
04:00 +17°C° 0 mm 0 m/S 726 mmHg 82%
05:00 +18°C° 0 mm 0 m/S 726 mmHg 80%
06:00 +19°C° 0 mm 0 m/S 726 mmHg 78%
07:00 +21°C° 0 mm 0 m/S 727 mmHg 72%
08:00 +22°C° 0 mm 0 m/S 727 mmHg 67%
09:00 +26°C° 0 mm 1 m/S 727 mmHg 63%
10:00 +28°C° 0 mm 1 m/S 727 mmHg 59%
11:00 +29°C° 0 mm 1 m/S 727 mmHg 55%
12:00 +29°C° 0 mm 2 m/S 727 mmHg 51%
13:00 +30°C° 0 mm 2 m/S 726 mmHg 47%
14:00 +30°C° 0 mm 2 m/S 726 mmHg 47%
15:00 +30°C° 0 mm 2 m/S 726 mmHg 48%
16:00 +30°C° 0 mm 2 m/S 726 mmHg 48%
17:00 +29°C° 0 mm 1 m/S 726 mmHg 55%
18:00 +27°C° 0 mm 1 m/S 726 mmHg 62%
19:00 +25°C° 0 mm 1 m/S 726 mmHg 69%
20:00 +24°C° 0 mm 1 m/S 726 mmHg 71%
21:00 +21°C° 0 mm 0 m/S 726 mmHg 73%
22:00 +19°C° 0 mm 0 m/S 726 mmHg 74%
23:00 +19°C° 0 mm 0 m/S 725 mmHg 74%

Morgen, 9 August, Sonntag

Zeit Temperatur Niederschläge Wind Luftdruck Luftfeuchtigkeit
00:00 +19°C° 0 mm 0 m/S 725 mmHg 74%
01:00 +18°C° 0 mm 0 m/S 725 mmHg 74%
02:00 +18°C° 0 mm 0 m/S 725 mmHg 74%
03:00 +18°C° 0 mm 0 m/S 725 mmHg 74%
04:00 +19°C° 0 mm 1 m/S 725 mmHg 75%
05:00 +19°C° 0 mm 0 m/S 725 mmHg 73%
06:00 +20°C° 0 mm 0 m/S 725 mmHg 72%
07:00 +21°C° 0 mm 0 m/S 725 mmHg 71%
08:00 +24°C° 0 mm 1 m/S 725 mmHg 66%
09:00 +26°C° 0 mm 1 m/S 726 mmHg 62%
10:00 +28°C° 0 mm 2 m/S 726 mmHg 58%
11:00 +29°C° 0 mm 2 m/S 725 mmHg 55%
12:00 +29°C° 0 mm 2 m/S 725 mmHg 53%
13:00 +30°C° 0 mm 2 m/S 725 mmHg 50%
14:00 +30°C° 0 mm 2 m/S 725 mmHg 50%
15:00 +30°C° 0 mm 2 m/S 724 mmHg 51%
16:00 +30°C° 0 mm 2 m/S 724 mmHg 51%
17:00 +28°C° 0 mm 2 m/S 724 mmHg 57%
18:00 +27°C° 0 mm 2 m/S 724 mmHg 64%
19:00 +25°C° 0 mm 2 m/S 724 mmHg 71%
20:00 +24°C° 0 mm 1 m/S 724 mmHg 71%
21:00 +23°C° 0 mm 1 m/S 724 mmHg 72%
22:00 +21°C° 0 mm 1 m/S 724 mmHg 72%
23:00 +21°C° 0 mm 1 m/S 723 mmHg 74%

übermorgen, 10 August, Montag

Zeit Temperatur Niederschläge Wind Luftdruck Luftfeuchtigkeit
00:00 +20°C° 0 mm 1 m/S 723 mmHg 77%
01:00 +20°C° 0 mm 1 m/S 723 mmHg 79%
02:00 +20°C° 0 mm 1 m/S 723 mmHg 81%
03:00 +19°C° 0 mm 1 m/S 723 mmHg 83%
04:00 +19°C° 0 mm 1 m/S 723 mmHg 85%
05:00 +20°C° 0 mm 1 m/S 723 mmHg 83%
06:00 +21°C° 0 mm 1 m/S 723 mmHg 82%
07:00 +22°C° 0 mm 1 m/S 723 mmHg 81%
08:00 +23°C° 0 mm 2 m/S 723 mmHg 75%
09:00 +25°C° 0 mm 2 m/S 723 mmHg 70%
10:00 +27°C° 0 mm 3 m/S 723 mmHg 64%
11:00 +28°C° 0 mm 3 m/S 723 mmHg 60%
12:00 +29°C° 0 mm 3 m/S 723 mmHg 57%
13:00 +30°C° 0 mm 3 m/S 723 mmHg 53%
14:00 +30°C° 0 mm 3 m/S 723 mmHg 53%
15:00 +30°C° 0 mm 3 m/S 723 mmHg 53%
16:00 +30°C° 0 mm 2 m/S 722 mmHg 53%
17:00 +28°C° 0 mm 2 m/S 722 mmHg 60%
18:00 +27°C° 0 mm 2 m/S 722 mmHg 66%
19:00 +26°C° 0 mm 1 m/S 722 mmHg 73%
20:00 +24°C° 0 mm 1 m/S 722 mmHg 76%
21:00 +23°C° 0 mm 1 m/S 722 mmHg 78%
22:00 +22°C° 0 mm 1 m/S 722 mmHg 81%
23:00 +21°C° 0 mm 1 m/S 722 mmHg 82%

11 August, Dienstag

Zeit Temperatur Niederschläge Wind Luftdruck Luftfeuchtigkeit
00:00 +21°C° 0 mm 1 m/S 722 mmHg 83%
01:00 +21°C° 0 mm 1 m/S 722 mmHg 84%
02:00 +20°C° 0 mm 1 m/S 722 mmHg 86%
03:00 +20°C° 0 mm 1 m/S 722 mmHg 88%
04:00 +20°C° 0 mm 1 m/S 722 mmHg 89%
05:00 +20°C° 0 mm 1 m/S 722 mmHg 88%
06:00 +21°C° 0 mm 1 m/S 722 mmHg 86%
07:00 +22°C° 0 mm 1 m/S 723 mmHg 84%
08:00 +23°C° 0 mm 2 m/S 723 mmHg 78%
09:00 +25°C° 0 mm 2 m/S 723 mmHg 72%
10:00 +27°C° 0 mm 2 m/S 723 mmHg 66%
11:00 +28°C° 0 mm 3 m/S 723 mmHg 63%
12:00 +29°C° 0 mm 3 m/S 723 mmHg 59%
13:00 +30°C° 0 mm 3 m/S 723 mmHg 56%
14:00 +30°C° 0 mm 3 m/S 723 mmHg 56%
15:00 +30°C° 0 mm 3 m/S 723 mmHg 55%
16:00 +30°C° 0 mm 3 m/S 723 mmHg 55%
17:00 +28°C° 0 mm 2 m/S 723 mmHg 62%
18:00 +27°C° 0 mm 2 m/S 723 mmHg 69%
19:00 +26°C° 0 mm 1 m/S 723 mmHg 76%
20:00 +24°C° 0.1 mm 1 m/S 723 mmHg 80%
21:00 +23°C° 0.1 mm 1 m/S 723 mmHg 83%
22:00 +22°C° 0.1 mm 1 m/S 723 mmHg 87%
23:00 +21°C° 0.1 mm 2 m/S 723 mmHg 89%

12 August, Mittwoch

Zeit Temperatur Niederschläge Wind Luftdruck Luftfeuchtigkeit
00:00 +20°C° 0.1 mm 2 m/S 723 mmHg 91%
01:00 +20°C° 0.1 mm 2 m/S 723 mmHg 93%
02:00 +19°C° 0 mm 2 m/S 722 mmHg 93%
03:00 +19°C° 0 mm 2 m/S 722 mmHg 93%
04:00 +18°C° 0 mm 2 m/S 722 mmHg 93%
05:00 +19°C° 0 mm 3 m/S 722 mmHg 90%
06:00 +19°C° 0 mm 3 m/S 722 mmHg 88%
07:00 +20°C° 0 mm 4 m/S 722 mmHg 86%
08:00 +21°C° 0 mm 4 m/S 722 mmHg 80%
09:00 +23°C° 0 mm 4 m/S 722 mmHg 74%
10:00 +25°C° 0 mm 4 m/S 722 mmHg 68%
11:00 +26°C° 0 mm 4 m/S 722 mmHg 66%
12:00 +27°C° 0 mm 4 m/S 722 mmHg 63%
13:00 +29°C° 0 mm 4 m/S 722 mmHg 60%
14:00 +28°C° 0.5 mm 4 m/S 722 mmHg 62%
15:00 +28°C° 0.5 mm 4 m/S 722 mmHg 64%
16:00 +28°C° 0.5 mm 4 m/S 721 mmHg 66%
17:00 +27°C° 0.1 mm 3 m/S 721 mmHg 71%
18:00 +26°C° 0.1 mm 3 m/S 721 mmHg 77%
19:00 +25°C° 0.1 mm 2 m/S 721 mmHg 82%
20:00 +24°C° 0 mm 2 m/S 721 mmHg 85%
21:00 +23°C° 0 mm 2 m/S 721 mmHg 87%
22:00 +21°C° 0 mm 2 m/S 721 mmHg 90%
23:00 +20°C° 0 mm 2 m/S 721 mmHg 91%

13 August, Donnerstag

Zeit Temperatur Niederschläge Wind Luftdruck Luftfeuchtigkeit
00:00 +20°C° 0 mm 2 m/S 721 mmHg 92%
01:00 +19°C° 0 mm 2 m/S 721 mmHg 93%
02:00 +19°C° 0.5 mm 2 m/S 721 mmHg 93%
03:00 +20°C° 0.5 mm 1 m/S 721 mmHg 94%
04:00 +19°C° 0.5 mm 1 m/S 721 mmHg 95%
05:00 +20°C° 0.4 mm 1 m/S 721 mmHg 94%
06:00 +21°C° 0.4 mm 1 m/S 721 mmHg 92%
07:00 +21°C° 0.4 mm 1 m/S 722 mmHg 91%
08:00 +23°C° 0 mm 1 m/S 722 mmHg 86%
09:00 +24°C° 0 mm 2 m/S 722 mmHg 81%
10:00 +25°C° 0 mm 2 m/S 723 mmHg 75%
11:00 +26°C° 0 mm 2 m/S 723 mmHg 71%
12:00 +27°C° 0 mm 2 m/S 723 mmHg 67%
13:00 +27°C° 0 mm 2 m/S 723 mmHg 63%
14:00 +28°C° 0.2 mm 2 m/S 723 mmHg 62%
15:00 +28°C° 0.2 mm 1 m/S 723 mmHg 60%
16:00 +28°C° 0.2 mm 1 m/S 723 mmHg 59%
17:00 +27°C° 0.2 mm 1 m/S 722 mmHg 65%
18:00 +26°C° 0.2 mm 1 m/S 722 mmHg 70%
19:00 +24°C° 0.2 mm 1 m/S 722 mmHg 76%
20:00 +23°C° 0.1 mm 1 m/S 722 mmHg 79%
21:00 +20°C° 0.1 mm 0 m/S 722 mmHg 82%
22:00 +19°C° 0.1 mm 0 m/S 722 mmHg 86%
23:00 +19°C° 0 mm 0 m/S 722 mmHg 86%
Mehr zeigen